www.pogodaiklimat.ru

ПОГОДА в Nanyue

  • Прогноз погоды в Nanyue
  • Монитор погоды в Nanyue
  • Климат города

АРХИВ ПОГОДЫ в Nanyue

Время (UTC), дата Ветер
(напр.,м/с)
 
Видим.   Явления Облачность Т
(С)
Тd
(С)
f
(%)
Тe
(С)
Тes
(С)
Комфортность P
(гПа)
Po
(гПа)
Тmin
(С)
Tmax
(С)
R
(мм)
S
(см)
03 10.01 С 4 <100 м туман ?/? +0.2 +0.2 100 -6 -6 1025.9 1026.0
06 10.01 С 5 <100 м слабый дождь {туман} ?/? -0.1 -0.1 100 -7 -7 1024.0 1025.8 -0.3 0.6
09 10.01 С 7 <100 м слабый переохл. дождь (гололёд) {туман} ?/? -0.6 -0.6 100 -8 -8 1024.8 1025.0
12 10.01 С 6 <100 м слабый переохл. дождь (гололёд) {туман} [диам. гололёда 29 мм] ?/? -1.9 -1.9 100 -9 -9 1026.2 1026.0 0.5
18 10.01 С 4 <100 м туман ?/? -1.3 -1.3 100 -7 -7 1028.3 879.0 +4.9 0.4
21 10.01 С 2 <100 м туман ?/? -1.1 -1.1 100 -5 -5 1027.6 1028.0
00 11.01 С 3 <100 м переохл. туман ?/? -2.4 -2.4 100 -8 -8 1029.6 1030.0 2
03 11.01 С 3 <100 м слабый переохл. дождь (гололёд) {туман} ?/? -1.8 -1.8 100 -7 -7 1029.6 1030.0
06 11.01 С 4 <100 м слабый переохл. дождь (гололёд) {туман} [диам. гололёда 53 мм] ?/? -1.1 -1.1 100 -7 -7 1026.7 1052.6 -2.5 2
09 11.01 СВ 3 100 м слабый дождь {туман} ?/? -0.3 -0.3 100 -5 -5 1026.3 1026.0
12 11.01 СЗ 3 <100 м слабый переохл. дождь (гололёд) {туман} [диам. гололёда 51 мм] ?/? -1.9 -1.9 100 -7 -7 1028.5 878.4 4
18 11.01 <100 м ?/? -2.7 -2.7 100 1027.5 1028.0 -0.2 4
21 11.01 <100 м ?/? -2.6 -2.7 99 1026.0 1026.0
00 12.01 С 3 <100 м слабый переохл. дождь (гололёд) [диам. гололёда 70 мм] ?/? -2.5 -2.6 99 -8 -8 1027.6 1027.8 3
03 12.01 С 3 <100 м слабый переохл. дождь (гололёд) {туман} ?/? -1.9 -2.0 99 -7 -7 1028.7 1029.0
06 12.01 С 4 <100 м переохл. туман {дождь} [диам. гололёда 70 мм] ?/? -1.2 -1.2 100 -7 -7 1025.1 1025.0 -2.9 2
09 12.01 С 3 100 м переохл. туман ?/? -1.7 -1.7 100 -7 -7 1025.4 1025.0
12 12.01 С 4 700 м переохл. туман 10/10 50 м
[]
-1.5 -1.5 100 -8 -8 1025.2 875.7
18 12.01 8000 м ?/? -1.4 -1.4 100 1025.5 1026.0 -1.1 0.1
21 12.01 8000 м ?/? -0.9 -0.9 100 1024.1 1024.0
00 13.01 СВ 5 12 км [диам. гололёда 70 мм] 10/10 1500 м
[]
-3.3 -3.4 99 -10 -10 1025.9 1026.0 0.1
03 13.01 СВ 4 17 км 10/10 600 м
[]
-2.8 -2.9 99 -9 -9 1026.9 1027.0
06 13.01 СВ 4 16 км 10/10 600 м
[]
-2.1 -2.8 95 -8 -8 1024.1 1050.4 -3.5
09 13.01 СВ 4 25 км 10/10 600 м
[]
-1.7 -3.7 86 -8 -8 1024.0 1024.0
12 13.01 СВ 4 <100 м туман ?/? 0.0 -0.1 99 -6 -6 1025.0 875.7
18 13.01 4400 м ?/? -1.1 -2.2 92 1026.3 876.8 +0.1
21 13.01 4100 м ?/? -1.2 -1.8 96 1024.9 1025.0
00 14.01 С 2 6000 м [диам. гололёда 50 мм] 10/10 600 м
[]
-1.4 -2.5 92 -5 -5 1025.6 1051.1 0.1
03 14.01 СВ 4 2800 м дымка 10/10 600 м
[]
-1.2 -1.5 98 -7 -7 1026.8 1027.0
06 14.01 СВ 3 <100 м туман ?/? -0.1 -0.4 98 -5 -5 1024.5 1025.0 -2.1
09 14.01 СВ 3 <100 м туман ?/? -0.3 -0.4 99 -5 -5 1025.4 1025.0
12 14.01 СВ 4 <100 м туман ?/? -0.5 -0.5 100 -6 -6 1026.7 1027.0
18 14.01 <100 м ?/? -0.8 -0.8 100 1028.9 1029.0 +0.1
21 14.01 100 м ?/? -1.3 -1.3 100 1028.0 1028.0
00 15.01 С 3 300 м дымка [диам. гололёда 50 мм] 10/10 600 м
[]
-0.9 -1.0 99 -6 -6 1028.9 1029.2
03 15.01 С 2 100 м туман ?/? -0.6 -0.7 99 -5 -5 1030.3 1030.0
06 15.01 С 1 100 м туман ?/? -0.7 -0.8 99 -3 -3 1028.2 1028.0 -1.5
09 15.01 С 1 1900 м в посл. час туман 10/10 300 м
[]
-0.5 -0.9 97 -3 -3 1028.2 1028.0
12 15.01 СВ 2 3800 м дымка {туман} 10/10 300 м
[]
-1.1 -1.7 96 -5 -5 1029.0 1029.0
18 15.01 3400 м ?/? -1.2 -1.9 95 1028.4 878.9 -0.1
21 15.01 6000 м ?/? -1.4 -2.7 91 1028.0 1028.0
00 16.01 В 6 <100 м туман [диам. гололёда 43 мм] ?/? -1.0 -1.1 99 -8 -8 1027.7 1053.4
03 16.01 В 2 3800 м дымка {туман} 9/9 50 м
[]
+0.6 0.0 96 -3 -2 1028.0 1028.0
06 16.01 ЮВ 2 н/о дымка {туман} 9/9 100 м
[]
+1.8 0.0 88 -2 -1 1024.7 1025.0 -1.5
09 16.01 Ю 1 3100 м дымка 9/9 50 м
[]
+0.2 -0.8 93 -2 -2 1025.1 1025.0
12 16.01 С 2 100 м туман ?/? -0.7 -1.0 98 -5 -5 1027.1 1027.0
18 16.01 <100 м ?/? -1.2 -1.2 100 1027.9 1028.0 +2.4 1
21 16.01 <100 м ?/? -1.6 -1.6 100 1028.1 1028.0
00 17.01 С 2 <100 м переохл. туман [диам. гололёда 35 мм] ?/? -1.1 -1.1 100 -5 -5 1029.0 1029.0 0.2
03 17.01 С 2 <100 м туман {дождь} ?/? -0.5 -0.5 100 -5 -5 1030.0 1030.0
06 17.01 С 1 <100 м туман {дождь} [диам. гололёда 31 мм] ?/? -0.2 -0.2 100 -3 -3 1027.4 1053.4 -1.7 0.1
09 17.01 СВ 3 <100 м туман ?/? -0.7 -0.7 100 -6 -6 1027.1 1027.0
12 17.01 СВ 2 <100 м туман ?/? -0.4 -0.4 100 -4 -4 1028.2 878.9
18 17.01 <100 м ?/? +0.8 +0.8 100 1028.8 1029.0 +1.0 1
21 17.01 <100 м ?/? +1.2 +1.2 100 1027.2 1027.0
00 18.01 Ю 1 <100 м туман [диам. гололёда 28 мм] ?/? +1.0 +1.0 100 -1 -1 1029.0 880.1 0.9

 

Местоположение метеостанции Nanyue (Китай): широта 27.30 долгота 112.70 высота над уровнем моря 1268 м.

В архиве по умолчанию представлена погода в Nanyue за последнюю неделю. Архивные данные за месяц целиком и за предыдущие месяцы, начиная с января 2011 года, Вы можете получить, выбрав интересующий диапазон дат из раскрывающегося списка и нажав кнопку "Ввод!".

Внимание! Время в таблицах - всемирное. Для получения местного времени необходимо прибавить поправку, которая в Nanyue равна 8 ч.

Ветер - указаны скорость ветра в м/с - средняя за 10 мин, порывы в срок и между сроками (в фигурных скобках) и направление, откуда дует ветер: С - северный, СВ - северо-восточный, В - восточный, ЮВ - юго-восточный, Ю - южный, ЮЗ - юго-западный, З - западный, СЗ - северо-западный.
Видимость - горизонтальная дальность видимости в метрах или километрах. При видимости от 1 до 10 км при отсутствии осадков обычно наблюдается дымка, при ухудшении видимости до 1 км и менее - туман. В сухую погоду видимость может ухудшаться дымом, пылью или мглою.
Явления - указаны атмосферные явления, наблюдавшиеся в срок или в последний час перед сроком; фигурными скобками обозначены явления, наблюдавшиеся между сроками (за 1-3 часа до срока); квадратными скобками обозначены град или гололедные отложения с указанием их диаметра в мм.
Облачность - указаны через наклонную черту общая и нижняя облачность в баллах и высота нижней границы облаков в метрах; квадратными скобками обозначены формы облаков: Ci - перистые, Cs - перисто-слоистые, Cc - перисто-кучевые, Ac - высококучевые, As - высокослоистые, Sc - слоисто-кучевые, Ns - слоисто-дождевые, Cu - кучевые, Cb - кучево-дождевые. Подробнее классификацию облаков см. в Атласе облаков (PDF).
T - Температура воздуха - температура, измеренная на высоте 2 м над землей.
Td - Температура точки росы - температура, при понижении до которой содержащийся в воздухе водяной пар достигнет насыщения.
f - Относительная влажность воздуха - влажноcть воздуха, измеренная на высоте 2 м над землей.
Te - Эффективная температура - температура, которую ощущает одетый по сезону человек в тени. Характеристика душности погоды. При расчете учитывается влияние влажности воздуха и скорости ветра на теплоощущения человека.
Tes - Эффективная температура на солнце - температура, которую ощущает человек, с поправкой на солнечный нагрев. Характеристика знойности погоды. Зависит от высоты солнца над горизонтом, облачности и скорости ветра. Ночью, в пасмурную погоду, а также при ветре 12 м/с и более поправка равна нулю.
P - Атмосферное давление - приведенное к уровню моря атмосферное давление.
Po - Атмосферное давление - измеренное на уровне метеостанции атмосферное давление.
Tmin - Минимальная температура - минимум температуры воздуха на высоте 2 м над землей.
Tmax - Максимальная температура - максимум температуры воздуха на высоте 2 м над землей.
R - Количество осадков - Количество выпавших осадков, мм. При наведении курсора мыши на число - период времени, за который выпало указанное количество осадков.
S - Снежный покров - Высота снежного покрова, см. При наведении курсора мыши на число - состояние снежного покрова и степень покрытия местности в баллах.